Location: *
(48.8780°N, 19.2358°E)
Time: 15:22:27
(UTC+00:00)

Cosmos 2082 Rocket - Pass Details

Date: 18 October 2019
Orbit: 832 x 855 km, 71.0° (Epoch: 11 November)

Event Time Altitude Azimuth Distance (km) Brightness Sun altitude
Rises 18:41:14 0° 326° (NW) 3,434 6.1 -28.9°
Reaches altitude 10° 18:43:52 10° 318° (NW) 2,492 5.4 -29.3°
Maximum altitude 18:49:02 36° 254° (WSW) 1,315 3.5 -30.1°
Enters shadow 18:51:14 27° 211° (SSW) 1,593 3.6 -30.4°
